TimeEDT,TemperatureF,Dew PointF,Humidity,Sea Level PressureIn,VisibilityMPH,Wind Direction,Wind SpeedMPH,Gust SpeedMPH,PrecipitationIn,Events,Conditions,WindDirDegrees,DateUTC
12:54 AM,48.0,44.1,86,30.24,10.0,Calm,Calm,-,N/A,,Mostly Cloudy,0,2012-10-09 04:54:00
1:54 AM,48.0,44.1,86,30.24,10.0,North,3.5,-,0.00,,Overcast,360,2012-10-09 05:54:00
2:54 AM,48.0,44.1,86,30.22,10.0,Calm,Calm,-,N/A,,Overcast,0,2012-10-09 06:54:00
3:54 AM,48.0,45.0,89,30.22,10.0,North,4.6,-,0.00,,Overcast,350,2012-10-09 07:54:00
5:54 AM,48.9,45.0,86,30.22,10.0,North,3.5,-,N/A,,Overcast,360,2012-10-09 09:54:00
6:54 AM,48.9,45.0,86,30.21,10.0,North,4.6,-,N/A,,Overcast,10,2012-10-09 10:54:00
7:54 AM,48.9,45.0,86,30.22,10.0,Calm,Calm,-,N/A,,Overcast,0,2012-10-09 11:54:00
8:54 AM,50.0,45.0,83,30.22,10.0,North,5.8,-,N/A,,Overcast,360,2012-10-09 12:54:00
9:54 AM,51.1,45.0,80,30.22,10.0,NNE,4.6,-,N/A,,Overcast,20,2012-10-09 13:54:00
10:54 AM,52.0,45.0,77,30.22,10.0,NNE,4.6,-,N/A,,Overcast,20,2012-10-09 14:54:00
11:19 AM,53.6,46.4,77,30.20,10.0,NNE,4.6,-,N/A,,Overcast,30,2012-10-09 15:19:00
11:52 AM,53.6,46.4,77,30.19,10.0,North,4.6,-,N/A,,Overcast,10,2012-10-09 15:52:00
11:54 AM,54.0,46.0,75,30.21,10.0,NNE,6.9,-,N/A,,Overcast,20,2012-10-09 15:54:00
12:28 PM,55.4,46.4,72,30.18,10.0,Variable,4.6,-,N/A,,Overcast,0,2012-10-09 16:28:00
12:54 PM,55.0,46.9,74,30.19,10.0,NNE,4.6,-,N/A,,Overcast,20,2012-10-09 16:54:00
1:54 PM,55.9,48.0,75,30.15,10.0,NNE,5.8,-,N/A,,Overcast,20,2012-10-09 17:54:00
2:54 PM,57.0,48.0,72,30.14,10.0,NNE,4.6,-,N/A,,Overcast,20,2012-10-09 18:54:00
3:54 PM,55.9,50.0,80,30.14,6.0,NE,3.5,-,0.01,Rain,Light Rain,50,2012-10-09 19:54:00
4:54 PM,55.0,51.1,86,30.14,10.0,NE,3.5,-,0.00,Rain,Light Rain,50,2012-10-09 20:54:00
5:54 PM,55.0,51.1,86,30.13,10.0,NNE,3.5,-,0.00,,Overcast,30,2012-10-09 21:54:00
6:54 PM,55.0,51.1,86,30.13,10.0,Calm,Calm,-,N/A,,Overcast,0,2012-10-09 22:54:00
7:54 PM,55.0,51.1,86,30.13,10.0,Calm,Calm,-,N/A,,Overcast,0,2012-10-09 23:54:00
8:54 PM,54.0,52.0,93,30.12,10.0,Calm,Calm,-,0.00,,Overcast,0,2012-10-10 00:54:00
9:37 PM,53.6,51.8,94,30.09,10.0,Calm,Calm,-,N/A,,Overcast,0,2012-10-10 01:37:00
9:54 PM,54.0,52.0,93,30.11,10.0,Calm,Calm,-,N/A,,Overcast,0,2012-10-10 01:54:00
10:54 PM,55.0,52.0,89,30.09,10.0,North,3.5,-,N/A,,Overcast,360,2012-10-10 02:54:00
11:15 PM,53.6,51.8,94,30.07,10.0,Calm,Calm,-,N/A,,Overcast,0,2012-10-10 03:15:00
11:54 PM,54.0,53.1,97,30.09,6.0,Calm,Calm,-,N/A,,Overcast,0,2012-10-10 03:54:00